Theta_e
304 303 303 302 302 302 301 301 301 302 302 303 304 305 305 306 307 306 301 303 298 293 294 297 299 296 297 297 291 296 295 296 294 291 293 294 292 294 293 296 295 293 292 292 293 291 289 301 304 299 302 311 311 311
304 303 303 302 302 301 301 301 301 302 302 303 303 304 305 306 307 307 299 302 302 295 295 301 301 302 302 302 297 298 296 296 298 293 295 297 294 296 295 290 300 293 296 293 294 294 298 300 300 305 307 311 310 307
304 303 302 302 301 301 301 301 301 302 302 303 303 304 305 306 307 306 302 302 299 295 295 297 300 304 306 304 305 296 299 300 301 302 298 297 291 296 293 293 297 299 300 295 295 296 296 299 301 305 309 307 307 304
304 303 302 302 301 301 301 301 301 302 302 302 303 304 305 306 306 306 300 302 298 295 289 295 303 302 307 306 305 303 302 303 302 302 297 295 292 297 292 294 295 297 299 294 293 296 298 298 299 301 302 303 302 301
303 303 302 301 301 300 301 301 301 302 302 302 303 304 305 306 305 305 302 304 303 298 292 294 301 304 305 306 304 303 302 300 300 295 294 292 296 296 296 295 292 299 296 296 293 298 297 296 299 300 299 298 299 298
303 302 301 301 300 300 300 301 301 302 302 303 304 305 305 305 306 301 298 302 303 302 295 290 301 301 303 304 303 302 301 302 301 297 294 297 298 296 290 288 294 297 298 300 295 298 298 297 297 297 297 296 295 294
302 301 301 301 300 300 300 301 301 302 303 303 303 304 305 306 304 300 297 301 302 303 296 292 294 301 301 302 302 301 300 298 298 298 295 296 296 296 291 287 293 295 297 297 300 298 292 293 291 294 293 293 294 294
302 301 301 300 300 300 300 301 302 302 302 303 303 305 305 306 305 303 305 305 304 300 299 291 293 297 301 298 297 299 296 298 296 295 297 294 297 295 287 293 294 294 293 294 294 295 293 293 294 293 295 296 293 292
301 301 300 300 300 300 300 301 301 302 303 302 304 304 305 303 300 301 305 304 304 300 295 294 291 290 300 297 298 298 296 293 297 294 294 296 290 285 288 293 293 295 295 292 293 294 294 293 293 294 294 293 293 292
301 300 300 300 299 300 300 301 301 302 302 303 300 298 295 299 304 305 301 300 300 298 297 294 295 292 296 297 296 295 296 291 290 292 296 292 289 292 292 294 295 295 295 296 293 291 292 291 291 291 291 292 292 291
300 299 299 299 299 300 300 301 301 301 301 299 295 293 299 303 301 297 293 293 294 292 295 296 295 293 299 294 294 294 292 293 288 290 291 288 288 290 292 292 294 295 294 293 293 292 292 292 291 290 290 290 290 289
300 299 299 299 299 300 300 301 301 299 298 297 297 300 299 297 294 291 290 292 292 290 295 294 294 296 297 298 294 295 291 292 286 293 289 286 290 291 291 291 292 292 292 291 292 290 290 290 290 289 289 288 288 288
299 299 299 299 300 300 301 301 301 301 302 301 298 294 292 292 287 287 284 288 289 293 295 296 293 295 297 297 295 292 289 288 293 290 287 290 291 292 291 290 290 291 291 290 289 289 288 288 288 288 287 287 287 286
299 299 299 299 300 301 302 302 303 301 298 294 290 284 287 288 290 290 291 292 294 295 296 296 295 294 295 294 294 289 291 291 287 284 286 291 292 292 292 292 291 289 290 289 288 287 286 286 285 286 286 286 286 285
299 298 299 300 301 302 303 303 303 301 296 290 290 283 287 293 294 294 295 295 295 295 296 295 294 294 294 292 293 291 288 285 287 287 293 293 293 293 292 292 291 290 289 288 288 287 286 285 285 284 285 286 285 285
298 299 299 301 302 303 302 301 300 297 295 292 290 289 291 292 294 295 295 295 297 297 296 296 292 290 290 291 289 286 286 284 289 295 295 294 293 293 292 292 291 290 290 289 288 287 286 285 285 284 285 285 285 285
298 298 300 301 303 303 302 298 296 294 291 292 290 293 292 293 293 295 298 298 298 296 292 293 288 288 292 288 286 289 289 292 296 295 293 295 294 293 294 292 291 290 289 288 287 287 286 285 286 285 282 283 285 285
297 301 302 302 301 299 298 297 295 294 291 292 290 292 293 294 296 296 299 298 296 296 295 291 294 288 287 285 287 293 294 294 295 294 294 295 296 295 294 292 291 289 288 288 288 288 287 286 284 284 283 284 285 285
298 300 301 301 299 295 294 295 295 290 290 293 293 293 294 295 296 298 300 299 301 300 297 293 289 288 288 293 293 295 296 294 293 294 295 296 296 294 293 292 291 289 289 289 290 288 287 287 286 286 286 287 285 286
299 300 301 301 300 295 292 293 299 292 289 292 294 292 293 294 299 299 300 298 296 293 290 291 291 293 293 294 295 298 298 297 294 293 295 295 295 294 293 293 291 291 290 290 291 288 287 286 287 287 288 287 287 286
299 299 300 299 296 295 294 293 293 293 293 292 295 293 293 298 296 296 295 297 292 290 290 294 294 296 296 297 300 301 300 300 297 296 296 295 295 295 294 293 292 291 291 290 291 289 289 287 287 288 287 287 287 288
298 299 297 297 293 292 291 293 291 292 292 292 292 293 293 293 293 295 297 293 291 293 296 296 297 296 296 297 299 299 302 302 302 300 293 293 293 293 293 293 292 291 291 291 291 291 291 291 290 289 288 287 287 287
299 298 296 294 289 286 286 293 290 292 288 290 293 291 291 293 295 297 293 293 294 298 298 299 297 298 299 300 298 298 298 298 299 300 299 296 296 296 296 294 294 292 291 291 293 292 291 289 289 289 289 288 287 286
299 294 290 288 287 285 291 289 290 290 290 289 288 288 290 292 295 292 289 292 294 297 297 297 297 294 296 295 294 295 294 298 299 299 298 298 295 295 296 296 295 295 295 294 293 293 292 291 290 290 290 288 287 286
288 287 289 285 289 287 286 286 287 287 285 287 287 289 290 293 290 288 287 291 294 294 292 292 293 295 294 294 295 295 295 294 295 297 299 298 298 296 296 296 296 296 296 294 292 292 291 292 291 290 290 290 288 287
284 287 285 287 287 286 286 285 286 287 288 287 289 292 292 290 286 284 288 292 293 292 291 291 292 293 293 294 294 295 294 294 294 295 299 299 298 297 295 294 293 294 296 296 294 292 291 291 291 290 290 290 287 289
281 285 289 292 291 290 289 291 291 290 288 287 290 289 287 285 285 289 293 293 293 293 293 295 295 294 293 293 294 295 296 296 294 294 296 296 299 299 299 296 295 297 297 296 295 294 293 292 291 291 291 291 291 291
287 289 286 289 290 292 289 290 289 289 290 292 291 288 287 286 287 292 292 294 294 293 294 295 295 295 295 294 294 294 295 295 297 297 297 295 296 296 296 297 298 287 296 297 296 296 295 294 292 292 291 291 291 292
288 291 291 288 290 291 291 290 290 292 293 293 290 288 288 291 292 292 292 292 293 293 292 291 291 292 292 292 293 293 293 292 293 293 294 294 293 291 294 295 295 296 297 296 287 292 295 294 294 293 293 292 293 293
288 291 289 288 288 289 293 295 292 293 294 293 293 291 291 290 290 291 291 291 290 290 291 291 291 291 290 290 290 290 291 291 290 288 287 287 287 290 291 292 294 294 296 296 295 293 285 291 289 293 292 293 292 292
291 290 290 291 290 293 294 295 295 295 295 293 293 291 289 288 290 290 290 290 290 290 289 288 288 289 289 288 287 286 286 289 289 289 289 288 288 288 289 290 291 294 295 295 294 293 292 292 292 292 292 292 292 291
290 289 290 288 289 293 294 293 292 292 292 291 291 291 289 289 288 288 290 289 289 289 287 288 287 287 289 289 289 288 285 288 288 288 288 289 289 289 289 289 290 292 293 295 295 294 294 293 293 292 292 292 292 292
292 292 291 290 289 290 291 291 289 288 289 288 288 289 289 289 286 287 290 291 290 289 289 289 289 290 289 288 288 288 287 288 287 285 285 285 285 287 289 289 289 291 292 293 295 295 294 294 293 293 293 294 293 293
Wind_Speed
13 12 13 12 14 14 14 15 17 18 19 20 21 20 19 17 16 8 6 2 3 3 12 6 5 7 6 5 6 9 7 2 4 7 4 3 3 3 3 4 3 3 4 3 2 3 3 11 4 2 4 10 17 20
13 12 13 13 13 13 14 15 17 18 19 20 20 19 18 17 15 11 4 1 2 4 7 8 18 20 14 12 6 4 4 3 1 3 2 2 3 2 1 3 5 3 2 5 3 3 6 7 5 6 3 12 14 17
14 13 12 13 13 14 14 14 16 17 17 18 20 20 19 17 15 8 4 4 2 3 6 5 4 7 6 8 5 3 1 2 3 2 2 1 4 3 2 3 3 3 1 4 3 8 9 11 10 7 10 14 16 20
14 13 12 12 12 13 14 14 16 17 18 18 20 20 19 18 16 11 3 1 2 3 3 6 5 12 10 7 4 8 5 3 3 2 2 2 2 4 3 3 4 3 3 6 7 8 12 15 13 13 19 19 21 19
15 13 12 12 12 13 13 15 15 17 19 19 18 20 21 18 16 8 4 3 3 3 4 8 17 5 10 10 8 5 6 1 3 3 3 4 2 3 2 3 5 5 2 0 4 6 12 11 13 15 20 20 19 22
16 13 12 12 12 13 13 15 15 16 19 20 21 20 21 18 13 2 2 3 5 1 3 5 4 8 13 13 7 7 3 3 3 4 3 3 2 1 3 3 11 12 15 10 9 16 18 16 17 16 21 18 18 19
16 13 12 12 12 13 13 15 16 17 19 21 23 23 21 15 3 3 2 3 5 2 2 5 6 4 8 5 4 3 3 2 2 2 4 4 6 6 4 5 7 13 15 12 10 8 15 14 9 12 16 17 19 17
16 13 12 12 12 12 12 14 16 19 20 21 23 25 19 6 3 4 2 4 5 1 2 3 4 5 7 5 5 5 5 2 5 2 1 3 2 4 5 8 8 12 15 16 16 16 14 12 13 14 13 11 16 13
15 13 11 11 13 12 12 13 15 18 20 23 24 18 2 1 1 0 10 4 2 2 2 1 3 5 8 3 2 3 3 3 2 4 3 2 5 7 6 3 4 2 8 13 15 14 13 13 12 11 11 11 12 10
15 12 9 11 12 12 12 12 14 18 22 18 3 1 1 1 11 7 3 2 2 0 0 2 1 3 5 3 3 4 3 3 2 4 2 4 3 3 8 8 10 12 12 11 14 9 10 10 10 9 10 8 7 6
12 11 10 12 11 11 9 10 13 17 8 3 4 3 4 8 1 1 2 1 1 2 1 1 2 3 2 4 3 3 2 2 2 3 2 2 3 3 5 8 9 11 12 13 13 11 10 8 7 7 7 6 6 4
12 10 10 10 11 11 8 9 10 4 2 4 5 5 3 2 1 3 1 1 2 1 1 2 2 2 2 2 3 2 3 1 3 1 2 3 3 8 8 9 9 10 12 13 12 12 11 10 8 6 5 5 5 4
8 10 8 9 10 11 9 9 8 7 8 2 2 2 1 1 1 4 3 2 2 2 0 1 3 2 1 1 2 2 3 3 1 1 3 3 7 8 8 9 9 10 11 11 11 10 9 8 7 6 5 3 2 2
9 8 7 8 11 12 12 13 11 4 2 2 2 3 4 3 3 3 2 1 1 2 1 2 2 2 2 2 1 2 2 2 1 1 3 5 10 10 8 7 9 9 9 9 8 7 7 7 7 6 5 4 2 3
7 6 7 11 11 6 3 2 8 3 1 2 2 4 5 2 2 1 0 1 2 1 1 1 1 2 0 1 1 1 2 2 3 2 2 6 11 10 9 8 8 8 7 8 6 6 6 6 6 6 6 5 5 4
5 6 4 5 2 5 5 4 2 1 2 3 4 4 2 2 2 2 3 2 3 2 2 1 1 2 1 1 1 2 1 1 0 2 3 9 11 10 9 8 7 7 7 7 7 7 6 7 7 6 5 5 5 5
2 2 2 3 2 5 5 2 2 3 3 4 3 3 3 4 3 1 2 2 2 2 1 0 2 2 0 1 2 1 0 1 2 1 5 9 12 11 10 9 8 7 7 7 6 6 6 4 3 3 5 4 4 4
2 2 2 4 2 2 1 2 2 3 6 3 3 1 2 4 1 2 2 3 3 2 1 1 1 2 1 2 1 1 1 2 3 4 6 7 9 9 9 10 9 8 8 7 6 5 3 4 4 3 3 3 3 3
1 2 3 3 1 2 2 3 3 3 3 1 3 2 3 2 2 1 2 3 0 1 3 2 1 1 1 1 1 2 2 2 3 5 6 7 9 10 10 10 10 9 8 7 6 5 4 4 4 3 3 3 3 3
6 8 5 3 2 1 2 2 1 3 2 1 2 2 2 1 2 3 4 2 1 2 1 2 2 1 1 1 0 3 4 5 7 7 5 5 5 9 9 8 7 8 7 7 6 4 4 4 3 3 3 3 4 4
2 1 4 4 1 2 2 2 3 2 1 2 1 1 1 2 3 3 2 2 2 1 1 2 1 2 2 2 2 2 3 3 4 3 4 4 5 6 7 6 8 6 6 6 5 5 3 4 3 3 3 4 4 4
2 6 2 2 1 2 3 2 2 1 2 2 2 1 1 2 2 3 3 2 2 1 2 2 2 2 3 3 2 2 2 4 4 2 3 7 7 7 7 8 8 7 6 6 6 6 5 5 5 6 6 5 4 4
5 2 2 2 2 2 4 2 3 3 2 0 1 1 1 2 2 2 2 2 2 2 3 4 3 3 4 8 5 5 4 3 1 3 5 5 5 6 7 8 8 8 7 7 7 6 6 6 6 6 7 7 6 6
3 2 3 4 4 2 2 3 3 2 1 1 1 2 3 3 3 1 2 1 2 4 4 6 5 4 4 4 1 2 2 2 1 1 1 6 6 7 8 7 8 8 7 7 8 8 8 8 8 7 7 7 6 6
3 3 3 4 3 3 4 3 3 3 3 3 2 2 2 0 2 2 3 2 4 4 3 4 3 3 3 3 2 3 4 3 3 2 3 1 4 4 6 6 7 7 8 9 10 10 9 9 9 9 9 8 8 8
3 4 5 5 3 4 4 4 5 5 2 2 3 2 0 2 3 3 2 4 4 4 4 4 3 3 3 2 2 1 2 2 2 3 1 3 1 3 4 6 6 6 8 9 10 12 12 12 12 13 11 10 8 9
3 4 3 2 2 2 3 2 1 1 4 5 3 4 2 2 2 2 2 1 2 3 3 4 4 3 3 3 3 1 2 2 3 4 3 4 2 2 4 5 7 4 9 11 11 13 14 14 14 13 12 10 10 11
4 2 4 4 4 3 1 2 3 3 2 2 4 4 3 1 2 3 1 2 5 5 5 4 4 3 3 3 3 2 2 4 5 3 3 3 3 3 3 2 2 2 7 10 11 11 12 13 13 14 14 12 10 10
3 2 3 5 4 3 4 1 1 2 1 1 2 2 3 2 2 1 3 3 4 5 6 5 4 3 3 3 3 3 4 5 5 4 10 6 4 4 6 5 4 1 3 6 6 8 13 12 13 13 14 12 10 10
3 4 3 3 2 3 2 2 2 3 2 2 3 3 2 2 2 1 2 4 3 3 3 3 3 2 2 1 2 2 4 5 6 5 3 3 2 4 5 5 4 4 2 4 7 7 6 7 7 8 9 9 9 9
2 4 2 1 2 2 2 3 3 3 3 2 2 2 3 3 2 1 1 2 4 5 5 4 4 3 2 2 2 1 1 3 5 4 3 2 2 3 4 4 5 4 4 4 7 9 10 10 11 11 13 13 13 12
4 5 4 4 2 2 1 2 1 2 2 2 2 2 3 3 4 3 3 4 5 5 4 4 3 3 3 3 2 3 1 3 4 4 6 5 5 4 5 4 4 4 4 5 7 9 13 13 11 12 13 15 14 15
3 4 3 3 3 4 2 2 1 1 1 1 1 1 2 1 1 2 2 1 2 3 4 4 3 2 3 3 3 2 1 3 4 4 4 4 5 6 6 5 5 5 5 3 5 8 12 16 12 14 14 14 15 14
Wind_Direction
259 272 282 293 303 314 320 324 326 327 331 334 338 339 341 343 343 349 296 231 298 278 291 266 277 297 316 341 337 322 331 34 336 17 4 40 48 38 69 28 18 66 88 64 93 106 136 8 294 311 50 140 143 147
253 265 277 288 299 306 315 321 323 325 329 330 332 333 335 340 344 346 294 175 254 242 272 294 280 264 256 266 289 298 299 297 325 285 291 323 80 59 125 101 20 77 31 129 345 33 2 10 328 322 185 141 134 128
244 257 271 285 296 304 311 316 318 319 321 323 327 328 331 335 340 341 287 329 264 271 291 278 305 332 264 249 208 259 263 289 295 288 310 28 83 325 83 75 121 91 59 86 180 20 38 47 60 68 115 114 117 122
235 247 260 274 286 296 304 311 313 314 319 324 325 322 325 331 330 327 273 257 264 277 302 288 320 311 313 319 267 216 287 300 281 322 9 29 80 351 39 29 52 355 348 125 96 117 86 53 67 88 93 102 105 109
225 237 250 265 278 290 298 304 313 314 317 319 320 316 319 326 325 316 263 235 240 326 306 295 307 277 310 357 17 82 178 162 355 19 6 30 25 42 27 36 13 346 93 57 83 77 98 80 82 97 100 101 105 113
221 228 243 257 272 283 293 300 304 310 314 315 314 313 314 319 327 294 268 173 202 248 288 307 319 288 319 348 35 38 36 51 50 12 7 12 339 27 69 72 16 56 57 46 88 87 91 85 80 85 91 92 88 87
218 223 239 257 269 281 293 301 305 310 313 315 315 310 310 305 267 234 317 60 163 191 253 295 301 304 315 319 2 347 19 46 47 85 32 1 10 16 37 53 17 57 58 52 63 110 62 44 78 76 79 79 82 79
211 219 236 255 270 279 291 300 307 311 313 316 312 306 307 292 177 262 128 194 185 221 233 293 294 312 9 340 345 3 344 29 31 82 68 20 356 50 68 67 72 69 62 57 63 67 84 94 86 80 89 95 86 86
202 217 227 257 272 280 293 304 310 313 316 315 308 303 196 215 195 61 316 89 157 279 292 276 324 317 349 358 308 317 331 42 341 40 41 36 7 43 348 46 43 43 91 111 92 88 86 87 89 86 85 82 88 87
205 214 222 245 263 278 292 303 315 318 313 313 324 279 231 77 317 315 185 216 185 105 295 277 108 296 326 342 329 336 16 23 44 35 328 63 66 67 42 75 91 98 108 115 107 96 100 92 91 83 76 76 87 97
198 214 234 255 263 270 287 308 322 328 332 16 3 332 322 319 316 277 242 270 14 210 202 337 260 311 24 319 330 20 351 353 59 5 59 80 78 51 46 70 77 84 85 79 85 86 82 95 100 99 92 89 92 91
192 218 239 258 270 279 291 304 322 333 336 301 294 282 287 313 95 252 255 227 232 313 171 292 336 302 316 296 291 13 343 317 82 328 78 96 98 122 117 100 85 81 86 84 81 84 79 74 73 83 88 88 85 91
208 234 241 260 273 279 287 290 286 278 297 279 225 249 3 239 187 223 200 180 223 195 296 338 316 324 283 306 266 312 345 41 282 62 80 79 141 135 128 117 101 93 91 89 83 79 78 80 74 80 96 80 99 91
219 238 256 273 276 282 287 282 268 271 263 257 243 276 221 191 232 198 183 171 103 216 261 316 292 321 4 290 339 312 31 258 90 87 80 150 162 145 137 129 123 110 102 98 96 93 90 86 85 76 67 59 46 46
226 244 260 274 266 277 331 48 145 159 261 234 222 241 221 300 251 200 127 221 186 234 232 231 207 282 338 279 359 291 160 64 347 42 73 150 153 149 143 132 118 108 99 91 86 78 73 67 61 64 53 55 58 65
213 272 239 239 284 297 133 97 122 111 229 228 230 252 208 266 205 192 203 235 161 171 168 171 255 251 106 339 53 52 86 161 75 1 99 142 144 145 140 127 110 102 96 90 80 73 65 53 47 55 59 44 45 65
231 207 145 289 335 143 159 164 157 200 239 223 223 221 261 284 262 271 196 145 132 196 185 192 236 70 59 182 131 9 77 333 315 90 139 153 153 150 142 130 123 113 104 96 96 87 82 80 61 57 56 37 45 57
224 161 37 63 81 99 112 213 242 235 241 218 245 276 207 249 232 208 183 149 172 180 177 106 117 241 172 178 178 114 86 56 74 123 129 137 139 140 141 136 136 136 135 137 127 106 92 126 84 98 111 100 88 74
93 296 317 26 106 131 214 203 197 262 234 193 254 240 246 249 231 309 158 145 141 99 125 114 213 214 168 129 276 124 121 123 121 111 112 122 141 144 142 141 141 142 142 138 120 82 71 66 90 111 110 109 94 79
272 267 261 194 183 198 240 245 230 262 271 359 266 245 261 331 92 116 137 110 106 120 158 167 212 158 158 119 219 110 105 115 128 132 128 127 139 146 155 153 150 145 140 131 115 104 103 104 103 130 139 121 122 99
196 176 142 141 128 227 284 288 237 248 322 259 292 309 206 188 143 143 137 148 71 321 204 196 199 145 145 160 155 136 139 153 154 163 147 157 158 162 153 155 155 162 161 160 154 137 133 106 124 134 125 118 96 97
165 163 121 174 190 182 259 223 275 318 253 279 273 266 208 159 164 165 159 150 182 173 165 155 172 165 168 177 176 175 143 186 208 190 123 129 162 172 179 174 172 178 179 177 172 160 148 134 126 111 117 118 119 119
148 144 152 135 163 157 265 183 233 213 246 328 241 225 206 168 136 167 166 157 155 140 143 118 100 60 112 114 101 72 48 86 146 208 200 204 194 183 175 178 185 180 178 182 180 172 160 141 140 128 128 138 132 130
167 193 189 175 177 228 192 215 211 218 240 226 244 233 177 143 154 135 162 188 126 142 132 132 141 120 102 87 84 78 32 16 108 67 246 188 189 191 194 188 190 194 189 171 176 176 167 170 156 159 153 147 146 145
178 209 189 188 187 221 212 187 184 193 241 191 228 194 122 106 161 182 198 195 166 141 128 106 87 83 108 112 99 95 62 37 357 5 35 258 194 169 187 193 196 195 179 171 176 179 178 174 178 174 175 177 167 160
208 187 189 184 167 218 198 190 197 192 209 208 190 138 201 163 170 212 219 166 152 160 166 144 133 125 123 121 115 103 34 0 312 275 179 30 26 231 208 195 189 195 197 195 180 181 181 183 185 184 182 185 175 175
217 209 192 224 229 195 206 192 183 164 196 206 185 167 173 179 186 115 135 162 127 133 140 126 112 116 132 132 117 64 326 301 279 278 305 295 313 285 249 221 207 188 175 190 189 186 183 185 188 189 187 185 186 193
238 185 192 175 198 201 209 150 187 207 219 187 163 184 197 170 126 131 105 85 120 128 110 90 78 80 87 84 66 13 350 325 290 239 173 109 83 62 45 15 330 299 177 185 189 187 187 185 187 188 190 192 186 187
213 202 204 193 185 192 198 244 173 123 89 253 170 137 127 77 49 97 96 109 128 133 126 130 113 113 108 90 61 34 18 13 359 227 205 180 166 33 3 24 14 339 178 172 183 191 187 182 183 185 187 190 187 183
219 190 209 171 199 194 152 164 133 110 83 62 101 120 114 103 71 25 148 149 149 135 123 117 129 160 118 78 67 67 48 41 42 28 27 56 21 339 345 359 2 1 312 189 181 167 116 154 141 164 171 176 179 182
158 183 155 113 116 76 81 128 117 106 103 90 56 89 108 133 131 63 101 114 126 130 133 132 125 120 105 83 68 52 114 49 15 14 18 338 326 322 327 329 325 323 318 226 191 182 177 177 180 182 184 188 190 190
182 187 146 132 135 84 177 187 122 96 112 144 129 125 155 173 187 166 163 159 153 153 148 136 157 139 107 97 104 100 75 348 340 339 335 321 307 302 299 298 288 287 291 290 218 199 192 192 187 190 194 197 197 199
151 120 96 98 119 141 356 78 70 113 83 100 126 179 192 240 192 113 132 234 219 168 151 127 130 127 116 134 111 83 17 333 330 297 282 285 290 292 291 269 260 260 262 266 277 210 200 203 203 203 202 201 201 201